Theta_e
326 328 329 329 333 331 330 331 330 330 329 328 327 326 327 327 327 324 323 324 322 320 319 317 317 314 314 313 310 308 308 306 303 304 304 307 305 306 311 311 313 311 310
326 327 326 327 329 331 332 329 328 329 330 329 330 329 329 329 327 326 324 325 322 321 321 318 318 318 315 315 314 311 308 306 305 302 301 303 303 305 308 308 311 313 309
325 325 325 325 324 326 329 329 329 330 330 330 330 329 329 329 328 327 326 325 324 322 322 321 318 318 315 314 312 309 309 309 304 302 300 301 302 304 305 306 307 306 311
323 322 323 320 325 325 326 330 331 331 331 329 329 329 330 329 329 328 325 324 324 323 323 322 320 319 316 314 313 311 307 304 301 300 299 300 300 302 303 302 303 303 305
323 322 321 320 319 324 326 325 331 333 332 331 330 329 330 330 330 329 326 324 324 323 323 322 320 321 321 317 314 309 305 302 301 299 299 298 299 299 299 302 301 301 302
322 322 323 324 323 320 322 325 324 325 332 332 331 330 329 330 317 317 324 325 325 324 320 322 322 321 319 316 315 312 308 303 301 300 298 297 298 298 300 300 299 297 297
320 320 320 322 324 325 322 319 316 322 327 328 329 329 329 329 311 312 315 327 325 324 321 320 320 323 319 317 311 310 309 308 307 302 300 299 298 300 300 299 298 297 297
317 318 317 315 317 321 322 319 320 319 327 329 328 328 328 329 311 307 310 326 325 325 321 319 320 319 318 315 311 308 307 307 306 305 302 302 302 302 301 302 299 299 298
316 315 316 313 312 313 315 318 320 319 324 328 327 328 328 328 309 306 310 323 324 323 322 321 320 318 309 306 311 308 307 306 307 305 304 303 301 301 302 299 297 296 295
314 314 312 310 308 308 308 309 315 321 324 326 328 328 324 328 306 306 311 323 322 322 320 320 311 317 303 303 313 309 305 305 304 304 302 300 300 300 302 300 299 296 295
315 312 309 307 307 306 303 307 312 314 321 325 325 325 326 324 322 306 306 326 324 323 323 321 320 305 302 301 305 308 307 303 302 301 299 297 298 299 300 300 300 299 297
313 310 307 306 305 305 304 308 310 312 318 321 322 323 326 326 307 304 303 307 317 324 323 323 321 302 301 300 302 300 298 300 299 297 295 296 297 299 300 300 301 301 302
308 306 306 305 303 303 303 304 302 305 310 316 321 322 313 310 305 301 301 301 303 312 325 318 309 301 299 298 299 297 297 298 297 295 295 296 297 299 299 301 302 302 302
305 304 304 303 300 302 301 300 302 300 302 308 311 309 304 303 304 307 307 306 305 307 305 302 300 301 300 301 299 298 298 298 297 296 296 297 298 299 298 299 299 299 298
304 303 302 301 299 301 298 297 298 298 294 300 303 303 302 300 300 299 299 301 302 303 305 305 304 304 302 302 302 302 300 298 297 296 297 297 297 296 295 296 297 296 297
302 302 300 303 301 298 301 300 294 293 293 292 292 299 299 294 292 293 293 293 294 296 301 301 301 302 302 303 303 301 301 301 299 297 296 295 295 294 294 295 298 298 297
300 301 302 302 303 298 301 302 301 297 294 292 292 292 292 292 292 292 293 293 293 297 301 302 302 302 302 301 301 301 299 299 300 297 298 294 294 293 294 297 297 297 296
301 300 302 301 304 300 299 300 301 300 299 298 294 292 291 291 291 292 292 297 300 299 300 301 301 301 301 300 299 298 298 298 298 298 296 295 293 295 297 296 296 296 296
300 301 303 302 302 303 302 303 300 301 300 298 297 294 292 291 291 292 294 299 298 299 300 299 299 299 298 298 298 297 297 296 296 297 297 297 297 297 297 296 296 291 292
297 294 297 302 303 303 302 301 302 301 299 298 298 296 296 292 294 293 296 298 296 297 296 297 297 297 296 297 297 297 296 295 296 296 296 297 297 297 296 296 296 295 295
298 297 294 302 303 304 304 303 303 301 299 298 298 297 290 296 295 295 292 292 292 292 293 292 292 294 297 298 297 297 296 296 296 296 296 296 296 295 296 297 296 296 296
302 302 301 303 303 303 300 302 303 300 299 298 295 294 289 297 296 295 295 297 295 295 295 297 297 297 297 297 297 297 296 295 296 296 296 296 296 296 296 296 296 296 296
302 303 303 304 301 296 301 301 300 298 296 296 297 296 296 296 296 297 297 297 297 295 293 294 293 292 295 296 296 296 294 294 294 295 294 295 295 295 296 295 295 295 295
301 303 304 302 301 301 300 298 297 294 298 297 296 296 297 297 297 297 297 297 293 292 291 291 290 290 290 289 289 292 292 292 291 291 292 293 293 293 294 294 294 295 295
303 302 302 301 300 300 298 299 299 300 298 297 298 298 298 298 298 297 295 292 291 290 290 289 289 289 288 287 287 288 288 285 286 286 289 290 291 291 292 292 293 294 295
299 300 299 299 298 298 298 297 297 297 297 297 297 296 295 295 295 293 292 291 290 290 289 288 288 287 286 285 285 284 285 285 287 285 289 290 290 290 291 291 292 293 294
Wind_Speed
1 3 3 5 4 2 5 10 11 11 11 10 5 4 5 4 5 6 6 6 8 7 3 5 6 6 4 4 3 3 2 3 2 3 1 3 3 4 5 4 5 5 5
5 2 5 6 8 6 10 11 5 8 5 6 6 6 6 6 6 8 10 10 10 10 9 6 6 5 8 6 4 4 3 3 3 4 2 2 3 3 3 3 3 4 5
4 5 5 7 9 12 11 5 5 8 9 9 10 9 10 8 8 7 6 6 10 8 8 7 5 4 3 3 5 5 3 3 2 2 3 2 3 2 3 3 3 5 3
5 9 8 1 6 8 12 10 9 9 12 11 11 12 14 10 8 8 7 6 6 7 7 8 8 8 7 6 5 6 4 4 2 1 2 3 2 3 1 2 4 2 6
8 7 7 5 3 4 2 5 7 8 12 13 12 12 12 12 9 11 9 9 8 7 7 8 8 9 10 9 5 5 6 3 2 2 3 1 2 2 1 2 4 3 5
6 5 5 6 5 3 5 5 6 7 9 11 16 17 14 10 14 17 12 6 8 8 8 7 6 10 10 13 10 10 10 7 4 3 2 2 3 2 1 2 2 3 5
4 5 4 4 4 6 3 5 6 5 9 13 13 13 12 12 18 18 18 12 11 9 8 7 7 7 9 8 7 7 9 9 7 6 5 5 3 4 2 2 2 2 3
3 4 5 6 6 4 6 6 8 6 6 7 7 7 8 9 16 16 14 12 12 11 8 7 9 8 9 10 8 7 7 6 6 4 6 5 5 5 4 3 2 5 3
1 3 4 5 6 6 6 8 7 6 6 4 3 5 8 9 13 14 14 11 10 9 8 9 10 9 12 15 9 8 7 5 6 8 8 6 4 6 5 1 2 0 3
4 3 2 3 4 5 5 7 5 8 6 4 7 9 15 13 12 19 16 7 9 6 6 8 12 12 15 17 12 9 8 7 6 4 2 0 1 4 6 6 3 4 2
4 3 2 2 4 4 5 4 7 9 9 6 6 5 6 8 9 15 17 12 9 7 7 6 7 15 18 18 13 9 8 7 5 5 3 1 3 3 3 4 5 4 3
6 5 2 2 3 3 5 6 6 7 7 3 5 4 4 3 2 12 16 19 14 11 13 8 8 14 18 17 12 11 13 8 5 3 1 2 3 3 3 4 4 5 5
5 5 4 1 4 4 4 6 5 6 5 3 2 4 3 3 3 5 10 9 10 3 7 9 13 17 12 10 11 13 11 5 4 3 3 4 3 3 2 3 2 4 5
7 6 5 3 4 3 2 3 4 5 8 3 2 3 3 3 2 1 2 2 9 5 6 5 4 5 7 9 7 7 5 5 5 4 4 3 1 1 2 0 2 3 3
7 6 6 4 2 3 3 3 3 3 1 8 2 2 2 1 2 4 5 4 5 7 11 7 5 4 4 4 1 3 4 4 4 4 3 3 3 1 0 0 1 2 3
6 6 5 4 3 3 3 3 4 3 9 8 8 3 4 10 10 9 9 11 9 9 6 8 8 6 6 3 1 3 2 5 3 4 4 4 3 2 3 2 2 4 5
6 6 6 6 4 4 4 3 1 2 11 12 11 13 12 9 10 11 11 11 11 6 5 5 5 5 6 7 4 2 1 1 2 2 4 3 3 3 3 4 4 5 5
7 9 7 7 6 4 4 4 3 0 1 3 11 8 9 8 7 8 7 5 4 5 3 5 4 4 3 3 1 2 2 1 2 4 2 3 3 4 5 5 5 6 5
2 4 7 6 6 7 4 3 4 3 3 3 3 5 7 8 8 8 8 3 4 5 4 4 3 3 3 4 1 1 2 2 2 4 3 4 6 6 6 6 5 6 5
4 5 5 6 7 6 4 3 4 4 4 4 3 3 2 2 3 3 3 3 5 3 4 3 3 2 3 2 0 2 2 3 5 5 5 5 5 5 5 6 5 6 6
3 3 6 4 7 6 5 4 3 4 4 4 3 2 2 2 3 3 4 4 4 3 4 3 2 1 2 1 1 3 4 5 5 5 5 5 5 6 5 6 6 7 5
4 4 5 7 6 7 5 6 6 4 5 5 2 2 5 4 3 3 4 4 4 4 3 3 2 2 2 2 3 4 4 4 4 5 6 6 5 5 5 6 6 6 5
3 4 5 6 6 8 6 6 6 6 5 4 4 3 3 4 3 3 5 4 4 4 3 4 4 4 4 4 4 3 4 6 6 5 5 4 5 6 6 6 5 5 5
3 4 4 8 7 8 8 7 7 7 5 5 4 4 4 5 4 4 5 5 5 4 4 5 4 5 3 2 3 3 4 5 5 5 8 6 6 5 5 5 6 7 7
8 7 7 8 8 9 10 9 7 6 6 6 5 5 5 5 6 5 6 5 4 4 7 6 5 6 6 6 6 8 7 8 7 6 5 6 6 6 5 5 6 6 8
10 11 9 8 7 8 9 9 8 7 6 6 7 7 6 7 6 6 6 6 5 6 6 4 5 7 8 6 8 10 9 9 7 5 3 4 4 4 5 7 9 7 7
Wind_Direction
280 280 213 260 244 232 201 163 177 174 184 165 252 235 213 185 183 189 165 167 147 154 184 187 174 155 149 140 123 115 116 117 148 314 276 305 313 325 328 15 9 358 340
16 299 232 226 229 217 208 239 243 190 174 151 161 226 221 199 190 199 194 167 178 173 183 187 198 185 163 156 152 154 152 168 133 210 278 299 273 292 319 326 340 320 324
299 320 281 215 208 217 239 255 171 173 177 188 185 177 238 213 188 197 208 209 180 183 170 165 205 192 204 165 152 147 141 135 138 140 265 284 275 297 337 1 315 308 309
28 6 0 238 237 219 209 212 213 201 201 199 198 189 210 199 195 180 179 201 197 182 174 161 183 196 194 192 172 165 145 140 160 163 249 261 272 309 343 338 315 316 311
28 36 355 2 347 217 186 169 203 207 213 213 206 206 203 203 194 184 179 197 200 197 193 176 188 186 180 184 160 182 150 160 150 189 257 295 296 338 349 312 294 325 299
20 24 6 353 317 310 246 210 204 216 213 208 218 215 201 198 190 184 168 195 194 193 202 174 184 186 181 182 186 174 168 158 189 177 223 227 255 251 274 270 289 351 349
27 19 3 354 347 339 303 309 292 273 241 232 221 218 223 196 170 181 182 210 220 202 190 170 192 197 177 166 179 175 188 173 173 173 191 212 218 216 159 276 270 240 233
5 12 356 358 349 348 332 274 268 269 268 226 200 196 210 204 186 190 193 202 218 212 192 176 199 188 187 163 161 178 195 198 203 204 204 204 207 239 195 193 243 285 265
252 329 358 349 344 353 342 329 301 246 246 225 234 210 213 216 195 182 187 198 214 202 184 192 205 196 180 163 162 177 189 215 193 213 215 219 201 231 225 129 273 352 306
220 241 346 355 348 344 334 328 300 299 253 215 218 215 218 221 188 180 182 192 202 218 192 206 205 203 172 170 179 173 182 208 187 176 203 309 274 269 242 195 190 221 220
240 224 276 57 7 358 327 312 322 314 285 241 222 202 206 208 200 194 193 204 206 209 227 204 216 200 177 181 176 175 185 155 178 175 194 278 279 264 227 213 204 205 198
194 234 271 47 51 10 354 330 342 317 308 236 229 204 211 221 305 203 202 210 217 216 219 215 206 201 183 179 171 164 151 130 136 163 200 253 244 244 241 225 228 234 225
204 235 242 151 73 25 358 328 355 346 314 324 233 198 120 71 41 98 161 191 238 276 218 205 185 185 174 159 157 150 136 144 144 149 222 232 214 236 305 303 307 299 275
203 216 234 248 106 68 23 352 351 19 322 325 356 129 134 128 130 119 95 140 165 123 76 78 98 150 147 142 133 155 152 162 165 178 205 231 250 189 145 82 311 312 305
187 185 211 223 163 115 87 21 4 37 350 300 25 108 137 178 182 162 166 145 130 142 122 109 95 72 53 7 30 151 142 149 172 171 183 187 166 210 276 231 218 272 250
188 177 190 202 192 145 144 131 61 90 70 24 31 86 67 69 45 76 68 74 89 116 96 115 120 120 120 129 79 330 50 118 170 134 152 173 193 199 247 234 219 249 252
199 188 170 190 200 173 166 142 141 74 80 58 42 68 82 105 95 87 83 71 43 22 69 69 85 96 123 131 123 154 78 42 58 260 208 179 205 229 221 234 222 242 244
178 188 181 184 193 198 195 162 143 143 358 41 39 45 64 71 82 103 113 87 56 42 63 87 89 83 86 53 102 150 70 244 146 257 246 221 221 225 230 230 225 236 239
278 176 197 188 187 172 192 177 132 147 114 96 95 49 33 49 60 50 23 55 91 87 84 91 101 122 126 130 57 280 208 263 236 241 242 246 238 229 226 233 233 228 234
234 235 213 189 177 170 181 179 141 140 123 110 89 89 137 12 49 52 49 48 62 71 80 67 74 77 69 80 152 255 238 235 243 240 232 236 236 227 231 233 227 235 231
265 221 205 176 176 158 159 158 121 124 114 102 105 107 244 154 124 102 95 93 100 90 85 79 51 14 31 324 241 259 250 241 235 236 232 233 229 234 228 230 235 236 237
267 224 193 188 151 140 148 134 118 118 111 113 97 74 92 84 78 94 91 73 67 62 62 65 34 337 357 320 261 252 243 249 244 235 230 227 226 228 233 231 233 236 235
267 198 179 155 140 127 114 114 116 118 116 109 110 101 92 92 94 91 87 74 58 49 47 49 25 356 349 344 327 309 291 277 273 265 256 242 231 230 225 231 240 247 246
235 149 140 131 130 122 115 106 104 94 109 103 103 97 96 89 77 68 81 72 61 44 45 47 33 339 307 338 294 281 277 284 284 270 264 246 238 236 236 241 246 251 252
108 109 104 94 103 113 117 108 105 104 117 108 98 94 82 76 76 76 72 63 45 34 39 25 19 334 334 348 337 331 310 296 283 272 255 235 238 246 245 247 243 245 250
50 72 77 85 83 97 103 105 106 97 85 90 87 79 82 81 74 72 62 51 37 30 21 11 352 341 357 354 341 326 325 327 317 303 244 225 235 241 236 238 242 241 242